• en France
  • Liste des pays
  • À 7 jours
  • Température de l'eau
  • Carte satellitaire
  • Carte météo
  • Widgets météo
  • user-avatar
    Se connecter

    Météo par heure à Daloa

    Ce jour, 20 Août, Lundi

    Heure Température Précipitation Vent Pression Humidité
    00:00 +23°C° 0 mm 1 m/s 739 mmHg 98%
    01:00 +23°C° 0,5 mm 1 m/s 739 mmHg 98%
    02:00 +23°C° 0,5 mm 1 m/s 739 mmHg 98%
    03:00 +23°C° 0,5 mm 1 m/s 738 mmHg 98%
    04:00 +23°C° 0,1 mm 1 m/s 739 mmHg 98%
    05:00 +23°C° 0,1 mm 1 m/s 739 mmHg 98%
    06:00 +23°C° 0 mm 1 m/s 739 mmHg 98%
    07:00 +24°C° 0,1 mm 1 m/s 739 mmHg 97%
    08:00 +24°C° 0,1 mm 1 m/s 739 mmHg 95%
    09:00 +24°C° 0,1 mm 1 m/s 740 mmHg 94%
    10:00 +25°C° 0,1 mm 1 m/s 739 mmHg 91%
    11:00 +26°C° 0,1 mm 1 m/s 739 mmHg 88%
    12:00 +26°C° 0,1 mm 1 m/s 739 mmHg 85%
    13:00 +27°C° 0,2 mm 1 m/s 738 mmHg 82%
    14:00 +28°C° 0,2 mm 2 m/s 738 mmHg 79%
    15:00 +29°C° 0,2 mm 2 m/s 737 mmHg 76%
    16:00 +28°C° 0,2 mm 2 m/s 737 mmHg 78%
    17:00 +28°C° 0,2 mm 1 m/s 737 mmHg 80%
    18:00 +28°C° 0,2 mm 1 m/s 737 mmHg 82%
    19:00 +26°C° 0,9 mm 1 m/s 737 mmHg 87%
    20:00 +25°C° 0,9 mm 1 m/s 738 mmHg 92%
    21:00 +24°C° 0,9 mm 1 m/s 738 mmHg 97%
    22:00 +24°C° 0,5 mm 1 m/s 739 mmHg 97%
    23:00 +24°C° 0,5 mm 1 m/s 739 mmHg 98%

    Demain, 21 Août, Mardi

    Heure Température Précipitation Vent Pression Humidité
    00:00 +23°C° 0,5 mm 1 m/s 739 mmHg 98%
    01:00 +23°C° 0,2 mm 1 m/s 739 mmHg 98%
    02:00 +23°C° 0,2 mm 1 m/s 739 mmHg 98%
    03:00 +23°C° 0,2 mm 1 m/s 738 mmHg 98%
    04:00 +23°C° 0,1 mm 1 m/s 738 mmHg 98%
    05:00 +23°C° 0,1 mm 1 m/s 738 mmHg 98%
    06:00 +23°C° 0,1 mm 2 m/s 738 mmHg 98%
    07:00 +24°C° 0 mm 2 m/s 739 mmHg 95%
    08:00 +24°C° 0 mm 2 m/s 739 mmHg 93%
    09:00 +25°C° 0 mm 2 m/s 739 mmHg 90%
    10:00 +26°C° 0,1 mm 2 m/s 739 mmHg 86%
    11:00 +27°C° 0,1 mm 2 m/s 739 mmHg 81%
    12:00 +28°C° 0,1 mm 2 m/s 739 mmHg 76%
    13:00 +28°C° 0,2 mm 2 m/s 739 mmHg 72%
    14:00 +29°C° 0,2 mm 2 m/s 738 mmHg 68%
    15:00 +30°C° 0,2 mm 2 m/s 737 mmHg 64%
    16:00 +29°C° 0,2 mm 2 m/s 737 mmHg 70%
    17:00 +28°C° 0,2 mm 2 m/s 737 mmHg 75%
    18:00 +27°C° 0,2 mm 1 m/s 737 mmHg 80%
    19:00 +26°C° 0,2 mm 1 m/s 737 mmHg 83%
    20:00 +26°C° 0,2 mm 1 m/s 738 mmHg 86%
    21:00 +25°C° 0,2 mm 1 m/s 738 mmHg 90%
    22:00 +24°C° 0,3 mm 1 m/s 739 mmHg 91%
    23:00 +24°C° 0,3 mm 1 m/s 739 mmHg 92%

    Après-demain, 22 Août, Mercredi

    Heure Température Précipitation Vent Pression Humidité
    00:00 +24°C° 0,3 mm 1 m/s 739 mmHg 94%
    01:00 +24°C° 0,2 mm 1 m/s 738 mmHg 95%
    02:00 +23°C° 0,2 mm 1 m/s 738 mmHg 96%
    03:00 +23°C° 0,2 mm 1 m/s 737 mmHg 97%
    04:00 +23°C° 0,1 mm 1 m/s 737 mmHg 97%
    05:00 +23°C° 0,1 mm 1 m/s 737 mmHg 97%
    06:00 +23°C° 0,1 mm 1 m/s 738 mmHg 96%
    07:00 +24°C° 0,1 mm 2 m/s 738 mmHg 94%
    08:00 +24°C° 0,1 mm 2 m/s 739 mmHg 92%
    09:00 +25°C° 0,1 mm 2 m/s 739 mmHg 90%
    10:00 +26°C° 0,1 mm 2 m/s 739 mmHg 82%
    11:00 +28°C° 0,1 mm 2 m/s 739 mmHg 75%
    12:00 +30°C° 0,1 mm 2 m/s 739 mmHg 67%
    13:00 +30°C° 0,4 mm 2 m/s 738 mmHg 68%
    14:00 +30°C° 0,4 mm 2 m/s 737 mmHg 69%
    15:00 +30°C° 0,4 mm 2 m/s 736 mmHg 70%
    16:00 +29°C° 1,2 mm 2 m/s 736 mmHg 77%
    17:00 +28°C° 1,2 mm 1 m/s 736 mmHg 85%
    18:00 +27°C° 1,2 mm 1 m/s 736 mmHg 93%
    19:00 +26°C° 1,1 mm 1 m/s 737 mmHg 94%
    20:00 +25°C° 1,1 mm 1 m/s 737 mmHg 95%
    21:00 +24°C° 1,1 mm 1 m/s 738 mmHg 97%
    22:00 +24°C° 0,2 mm 1 m/s 738 mmHg 97%
    23:00 +24°C° 0,2 mm 1 m/s 739 mmHg 97%

    23 Août, Jeudi

    Heure Température Précipitation Vent Pression Humidité
    00:00 +24°C° 0,2 mm 2 m/s 739 mmHg 98%
    01:00 +24°C° 0,2 mm 2 m/s 738 mmHg 98%
    02:00 +24°C° 0,2 mm 2 m/s 738 mmHg 98%
    03:00 +23°C° 0,2 mm 2 m/s 737 mmHg 98%
    04:00 +23°C° 0,2 mm 2 m/s 737 mmHg 98%
    05:00 +23°C° 0,2 mm 1 m/s 737 mmHg 98%
    06:00 +23°C° 0,2 mm 1 m/s 737 mmHg 98%
    07:00 +24°C° 0,1 mm 1 m/s 738 mmHg 97%
    08:00 +24°C° 0,1 mm 1 m/s 738 mmHg 95%
    09:00 +25°C° 0,1 mm 2 m/s 739 mmHg 94%
    10:00 +26°C° 0,4 mm 2 m/s 739 mmHg 91%
    11:00 +27°C° 0,4 mm 2 m/s 738 mmHg 88%
    12:00 +27°C° 0,4 mm 2 m/s 738 mmHg 85%
    13:00 +28°C° 0,7 mm 2 m/s 737 mmHg 82%
    14:00 +29°C° 0,7 mm 2 m/s 736 mmHg 80%
    15:00 +29°C° 0,7 mm 2 m/s 735 mmHg 78%
    16:00 +28°C° 0,9 mm 2 m/s 735 mmHg 82%
    17:00 +27°C° 0,9 mm 2 m/s 735 mmHg 86%
    18:00 +27°C° 0,9 mm 1 m/s 736 mmHg 90%
    19:00 +26°C° 0,2 mm 1 m/s 736 mmHg 92%
    20:00 +25°C° 0,2 mm 1 m/s 737 mmHg 94%
    21:00 +24°C° 0,2 mm 1 m/s 737 mmHg 96%
    22:00 +24°C° 0,2 mm 2 m/s 738 mmHg 97%
    23:00 +24°C° 0,2 mm 2 m/s 738 mmHg 97%

    24 Août, Vendredi

    Heure Température Précipitation Vent Pression Humidité
    00:00 +24°C° 0,2 mm 2 m/s 738 mmHg 97%
    01:00 +24°C° 0,2 mm 2 m/s 737 mmHg 97%
    02:00 +24°C° 0,2 mm 2 m/s 737 mmHg 97%
    03:00 +23°C° 0,2 mm 2 m/s 737 mmHg 97%
    04:00 +23°C° 0,1 mm 2 m/s 737 mmHg 97%
    05:00 +23°C° 0,1 mm 2 m/s 737 mmHg 97%
    06:00 +23°C° 0,1 mm 2 m/s 737 mmHg 97%
    07:00 +23°C° 0,2 mm 2 m/s 737 mmHg 96%
    08:00 +24°C° 0,2 mm 2 m/s 738 mmHg 95%
    09:00 +24°C° 0,2 mm 2 m/s 738 mmHg 94%
    10:00 +25°C° 0,1 mm 2 m/s 738 mmHg 89%
    11:00 +27°C° 0,1 mm 2 m/s 738 mmHg 83%
    12:00 +28°C° 0,1 mm 2 m/s 738 mmHg 77%
    13:00 +28°C° 0,3 mm 2 m/s 737 mmHg 76%
    14:00 +28°C° 0,3 mm 2 m/s 736 mmHg 75%
    15:00 +28°C° 0,3 mm 2 m/s 735 mmHg 75%
    16:00 +28°C° 0,4 mm 2 m/s 735 mmHg 79%
    17:00 +27°C° 0,4 mm 1 m/s 736 mmHg 83%
    18:00 +27°C° 0,4 mm 1 m/s 736 mmHg 87%
    19:00 +26°C° 0,8 mm 1 m/s 736 mmHg 90%
    20:00 +25°C° 0,8 mm 1 m/s 737 mmHg 93%
    21:00 +24°C° 0,8 mm 2 m/s 737 mmHg 97%
    22:00 +24°C° 0,2 mm 2 m/s 737 mmHg 97%
    23:00 +24°C° 0,2 mm 2 m/s 737 mmHg 97%

    25 Août, Samedi

    Heure Température Précipitation Vent Pression Humidité
    00:00 +24°C° 0,2 mm 2 m/s 738 mmHg 97%
    01:00 +24°C° 0,1 mm 2 m/s 737 mmHg 97%
    02:00 +23°C° 0,1 mm 2 m/s 737 mmHg 97%
    03:00 +23°C° 0,1 mm 2 m/s 736 mmHg 97%
    04:00 +23°C° 0,1 mm 1 m/s 737 mmHg 98%
    05:00 +23°C° 0,1 mm 1 m/s 737 mmHg 98%
    06:00 +23°C° 0,1 mm 1 m/s 737 mmHg 98%
    07:00 +23°C° 0,1 mm 1 m/s 738 mmHg 97%
    08:00 +24°C° 0,1 mm 2 m/s 738 mmHg 96%
    09:00 +24°C° 0,1 mm 2 m/s 739 mmHg 95%
    10:00 +24°C° 0,1 mm 2 m/s 738 mmHg 93%
    11:00 +25°C° 0,1 mm 2 m/s 738 mmHg 91%
    12:00 +26°C° 0,1 mm 2 m/s 738 mmHg 88%
    13:00 +26°C° 0,5 mm 2 m/s 737 mmHg 87%
    14:00 +27°C° 0,5 mm 2 m/s 736 mmHg 87%
    15:00 +27°C° 0,5 mm 2 m/s 736 mmHg 86%
    16:00 +27°C° 0,7 mm 2 m/s 736 mmHg 89%
    17:00 +26°C° 0,7 mm 2 m/s 736 mmHg 92%
    18:00 +25°C° 0,7 mm 1 m/s 736 mmHg 95%
    19:00 +25°C° 0,8 mm 1 m/s 737 mmHg 96%
    20:00 +24°C° 0,8 mm 1 m/s 738 mmHg 97%
    21:00 +24°C° 0,8 mm 1 m/s 738 mmHg 97%
    22:00 +24°C° 0,6 mm 1 m/s 738 mmHg 98%
    23:00 +23°C° 0,6 mm 1 m/s 738 mmHg 98%
    Voir plus